Wind_Speed
17 16 16 16 16 16 17 18 18 19 20 21 22 23 25 26 28 29 30 32 34 35 35 36 36 36 36 36 36 35 35 34 33 33 32 31 30 29 29 29 28 27 26
20 19 18 19 19 19 19 20 21 21 22 23 24 25 27 28 30 31 32 33 35 36 37 37 37 37 37 37 37 36 36 35 34 33 32 32 31 30 30 30 30 29 27
23 22 22 22 22 22 22 23 23 24 25 26 27 28 29 30 32 33 35 35 36 36 37 38 38 38 38 38 38 37 36 36 35 34 33 33 32 31 31 30 30 30 29
25 25 25 25 24 25 25 25 26 27 28 29 29 30 31 32 34 35 37 38 38 38 38 38 39 39 39 38 38 38 37 37 36 35 34 34 33 32 31 30 31 30 30
29 28 28 28 27 27 28 28 29 30 30 31 32 33 34 35 36 37 38 39 39 39 39 40 40 40 40 39 39 38 37 37 36 36 35 34 34 32 32 32 31 31 31
32 32 31 31 31 31 31 32 32 33 34 34 35 35 36 37 38 39 40 41 41 41 41 42 42 42 41 41 39 38 37 37 36 36 36 36 34 33 33 32 32 32 32
36 35 35 34 34 34 34 35 35 36 36 37 38 38 38 39 40 40 41 42 42 43 43 43 43 42 42 41 40 39 38 37 37 36 36 36 35 34 34 33 33 32 32
39 38 38 37 37 37 37 38 38 39 39 40 41 41 41 40 41 42 41 41 43 44 44 44 43 42 42 41 39 39 38 38 37 37 36 35 35 35 35 35 33 32 31
41 41 41 41 41 41 41 41 42 42 42 43 43 44 45 44 43 43 42 42 43 44 44 43 43 42 42 40 39 39 38 38 37 36 36 35 35 35 35 34 33 32 31
44 45 45 45 45 45 44 45 45 45 45 45 46 46 47 47 46 44 44 44 44 44 43 43 42 42 41 40 39 39 38 38 37 36 36 35 35 35 34 33 33 32 32
47 48 48 48 48 47 47 47 47 47 47 47 47 47 48 47 47 46 45 45 44 44 43 43 43 42 41 40 39 38 38 37 36 36 35 35 34 34 33 32 32 32 31
48 49 50 50 50 49 48 48 48 48 48 48 49 48 48 47 46 46 45 44 44 44 44 43 42 41 40 39 39 38 37 36 36 35 35 34 34 33 32 31 32 32 31
50 50 51 51 51 50 50 49 49 49 49 49 49 48 47 46 46 45 45 44 44 43 43 42 41 41 40 39 38 37 36 36 35 34 34 33 32 32 31 31 31 31 30
52 52 52 51 51 51 50 50 49 49 49 49 48 47 46 45 45 45 44 44 43 43 42 41 41 40 39 38 37 36 35 35 34 33 32 32 32 31 31 31 30 30 30
52 52 52 51 51 50 50 49 49 48 48 47 47 46 45 45 45 44 44 44 43 42 41 40 39 38 37 37 36 35 34 33 32 32 32 31 31 31 31 31 30 30 30
51 50 50 50 49 49 49 49 48 48 47 46 46 45 45 45 45 45 44 44 43 41 40 39 38 37 36 35 34 33 33 32 32 32 32 31 31 31 31 30 29 29 28
50 50 50 49 49 49 49 48 48 47 47 46 46 45 45 45 45 45 44 43 41 40 38 37 36 35 35 34 33 32 32 32 31 32 32 31 31 30 30 29 28 28 28
51 51 51 50 50 50 49 48 48 47 46 46 46 45 45 45 45 43 42 41 39 37 36 35 35 34 34 33 32 31 31 31 31 31 31 31 30 30 30 29 29 29 28
51 51 51 50 49 49 48 48 47 47 46 45 45 45 45 44 43 41 40 38 37 36 35 34 33 33 32 31 31 31 31 31 31 31 30 30 30 30 30 30 30 30 30
49 49 49 48 48 47 47 46 46 45 45 45 44 44 43 42 41 39 38 36 35 34 33 33 32 32 31 31 31 31 31 31 31 31 31 30 31 31 31 31 31 31 31
45 45 45 45 45 45 45 45 44 44 43 43 43 42 41 39 38 37 35 34 33 32 32 31 31 31 31 31 31 31 31 31 31 31 31 31 31 31 32 32 32 32 32
43 43 43 43 43 42 42 42 42 41 41 41 40 39 37 36 35 34 33 32 32 32 31 31 31 31 31 31 31 31 31 31 31 31 32 32 33 33 33 34 34 34 34
41 41 42 42 41 41 41 41 40 39 39 38 37 36 35 34 33 32 32 32 31 31 30 30 31 31 31 31 32 32 32 32 33 33 33 34 34 34 35 35 35 35 35
40 40 40 40 39 39 39 39 39 38 37 36 35 34 33 32 31 31 31 31 31 31 31 31 31 32 32 33 33 33 33 34 34 34 34 35 35 36 36 36 36 36 37
38 38 38 38 37 37 37 36 36 36 35 34 33 32 32 31 31 31 30 30 31 31 31 32 32 32 33 34 34 35 35 35 35 36 36 36 37 37 37 37 38 38 38
36 36 35 35 35 34 34 34 33 33 33 32 31 31 31 31 30 30 31 31 31 31 32 33 33 34 34 35 35 36 36 36 36 37 37 38 38 38 38 39 39 39 39
Wind_Direction
261 266 271 276 280 284 288 292 295 299 303 306 309 311 312 314 315 316 316 317 318 318 319 319 319 320 319 319 318 316 314 312 310 309 306 305 303 301 299 297 295 293 290
262 266 271 275 279 282 286 290 293 297 300 303 306 308 309 310 312 313 314 314 315 315 316 316 317 317 317 316 315 314 312 311 309 307 305 304 302 301 299 296 294 292 290
262 266 270 275 279 282 285 289 292 295 298 300 303 305 306 307 309 310 311 312 312 312 313 314 314 315 315 314 313 311 310 308 307 305 303 302 301 299 298 296 293 291 289
264 267 271 275 279 282 284 287 291 294 297 299 301 302 303 305 306 308 309 310 311 311 311 312 313 313 313 312 311 309 308 306 305 303 302 300 299 298 297 296 294 291 289
265 269 272 275 278 281 284 286 290 292 295 297 299 301 302 303 304 306 306 308 309 310 310 310 311 311 311 311 309 307 306 305 304 303 301 299 298 297 296 296 294 292 289
267 270 273 276 279 282 284 286 289 291 294 296 298 299 300 301 303 304 306 306 307 308 309 309 310 310 310 309 307 306 304 303 302 302 301 299 298 297 296 295 294 292 289
268 271 273 276 279 282 284 287 289 291 293 295 296 298 299 301 302 304 304 304 305 306 307 308 308 308 308 307 305 304 303 301 301 300 299 298 297 297 296 295 293 291 289
270 272 274 276 279 282 284 286 288 290 292 294 295 296 297 298 300 301 301 302 302 304 305 306 306 306 306 305 304 303 301 300 300 299 298 297 296 296 296 295 294 291 289
270 272 275 277 279 281 283 286 288 290 292 293 294 296 297 298 298 299 299 300 301 302 303 304 304 304 304 304 302 301 300 299 299 298 297 296 295 295 295 294 293 292 290
271 273 275 276 278 280 282 285 287 289 290 292 293 294 296 297 298 298 299 300 300 301 302 302 302 302 302 302 301 300 299 299 298 297 297 296 295 295 293 293 293 292 290
272 274 275 276 278 279 281 283 285 287 289 290 291 293 294 295 296 297 298 298 299 300 301 301 301 301 301 301 300 299 299 299 298 297 297 297 296 295 294 293 293 291 290
272 273 274 275 276 278 280 282 283 285 287 288 290 291 292 293 294 295 296 297 298 299 299 299 299 300 300 300 299 299 299 298 298 298 298 297 296 295 294 293 292 291 290
271 273 273 274 275 276 279 281 282 284 286 287 288 290 291 292 293 294 295 296 296 297 298 298 298 298 299 299 299 299 299 298 299 299 298 297 296 295 293 293 292 290 289
271 272 273 274 275 277 278 280 281 283 285 287 288 288 290 291 292 293 294 295 295 296 296 296 296 297 297 298 298 299 299 299 299 299 298 297 297 295 294 293 292 289 289
271 272 273 275 276 277 278 280 281 283 285 286 286 287 288 289 291 292 293 293 294 294 294 294 295 296 297 297 298 298 299 299 299 299 298 298 297 296 295 294 293 290 290
272 273 274 275 276 277 277 279 281 282 283 284 285 286 287 288 289 290 291 291 292 292 291 292 293 294 295 296 297 298 298 299 299 299 298 298 297 296 295 295 293 292 290
271 273 274 275 276 276 278 279 280 281 282 283 283 284 285 287 288 289 289 290 290 289 289 291 292 293 294 295 296 297 298 299 299 299 299 298 298 296 295 294 293 292 291
271 272 274 275 275 276 277 278 279 280 281 281 282 283 284 286 287 287 288 288 288 288 288 290 291 293 293 295 296 297 298 298 298 299 299 298 297 297 296 294 292 292 290
272 273 273 274 275 276 277 278 278 279 280 280 281 282 283 285 285 285 286 286 286 287 288 289 290 291 293 294 296 297 297 297 298 299 298 297 297 296 296 294 292 291 290
272 272 273 273 274 275 276 277 278 278 278 279 280 281 282 283 283 284 284 284 285 286 286 288 289 291 292 293 295 296 296 297 298 298 298 297 296 296 295 294 293 292 290
273 274 275 275 275 276 276 277 277 277 278 279 279 280 280 281 281 282 282 283 284 284 286 287 288 290 291 292 294 296 297 298 298 298 297 297 297 296 295 294 293 292 291
274 275 275 275 276 276 276 276 276 277 277 277 278 278 279 280 280 281 281 281 283 284 284 286 288 290 291 292 294 295 297 298 297 297 297 297 297 296 295 294 294 293 291
274 274 275 275 275 275 275 275 275 276 276 277 277 277 278 278 278 279 279 280 282 282 284 286 288 290 291 292 294 295 296 297 296 296 296 296 296 296 295 294 293 293 291
274 275 275 275 275 275 275 275 274 275 276 276 276 276 276 276 277 277 279 280 281 282 285 287 289 290 291 292 294 295 296 296 296 296 296 296 296 296 295 294 294 294 293
275 276 275 275 275 274 274 274 274 274 275 275 274 275 275 275 276 277 278 280 281 283 285 287 289 290 292 293 294 295 295 296 295 296 296 297 297 297 296 295 294 294 294
275 275 275 275 275 274 274 274 274 274 274 274 274 274 274 274 275 276 277 279 282 283 286 288 289 291 292 293 294 295 295 295 295 295 296 297 297 296 296 295 295 295 294
Height
5871 5872 5872 5872 5872 5872 5871 5871 5870 5869 5868 5868 5866 5865 5863 5861 5859 5857 5855 5852 5849 5846 5844 5841 5837 5834 5831 5828 5824 5821 5818 5815 5812 5809 5806 5804 5801 5799 5797 5795 5793 5791 5790
5867 5868 5868 5868 5868 5868 5867 5867 5866 5865 5864 5863 5862 5860 5859 5857 5854 5852 5850 5848 5845 5841 5838 5835 5832 5829 5825 5822 5818 5815 5812 5808 5805 5802 5800 5797 5795 5793 5790 5788 5786 5785 5784
5862 5863 5863 5863 5863 5863 5863 5862 5861 5860 5859 5858 5857 5855 5854 5851 5849 5847 5844 5842 5839 5836 5832 5829 5826 5822 5819 5815 5812 5808 5805 5802 5799 5796 5793 5790 5788 5786 5784 5782 5780 5778 5777
5857 5858 5858 5858 5858 5858 5857 5857 5856 5855 5854 5853 5851 5850 5848 5846 5844 5841 5838 5835 5832 5830 5826 5823 5820 5816 5812 5809 5805 5801 5798 5794 5791 5789 5786 5783 5781 5779 5777 5775 5773 5772 5770
5852 5852 5852 5852 5852 5852 5851 5851 5850 5849 5848 5847 5845 5844 5841 5839 5837 5834 5831 5828 5825 5822 5819 5816 5813 5809 5805 5802 5798 5794 5791 5787 5784 5781 5778 5776 5774 5772 5770 5768 5766 5764 5763
5845 5846 5846 5846 5846 5846 5845 5844 5843 5842 5841 5840 5838 5837 5835 5832 5830 5827 5824 5820 5817 5814 5811 5808 5805 5801 5798 5794 5791 5787 5784 5780 5776 5773 5770 5768 5766 5764 5762 5760 5758 5757 5756
5838 5839 5839 5839 5839 5839 5838 5837 5836 5835 5833 5832 5831 5829 5828 5825 5822 5819 5816 5813 5809 5806 5803 5800 5797 5793 5790 5786 5783 5779 5776 5772 5769 5766 5763 5760 5758 5756 5754 5752 5750 5749 5748
5831 5831 5831 5831 5831 5831 5830 5829 5828 5827 5825 5823 5822 5820 5820 5819 5815 5812 5808 5805 5801 5798 5795 5791 5788 5785 5781 5778 5775 5771 5767 5764 5761 5758 5755 5753 5750 5748 5745 5743 5742 5740 5739
5823 5823 5823 5823 5823 5822 5822 5821 5819 5818 5817 5815 5813 5811 5809 5808 5806 5804 5800 5797 5793 5790 5786 5783 5779 5776 5772 5769 5766 5763 5759 5756 5753 5750 5747 5745 5742 5740 5738 5735 5733 5732 5730
5814 5814 5814 5814 5814 5813 5813 5812 5810 5809 5808 5806 5804 5802 5799 5797 5795 5794 5791 5787 5784 5781 5777 5774 5770 5767 5764 5760 5757 5754 5751 5748 5744 5742 5739 5736 5734 5731 5729 5727 5725 5723 5722
5804 5804 5804 5804 5804 5804 5803 5802 5801 5799 5798 5796 5794 5792 5790 5787 5785 5783 5781 5778 5774 5771 5768 5764 5761 5757 5754 5751 5748 5745 5742 5739 5736 5733 5730 5728 5725 5723 5721 5719 5717 5715 5713
5795 5794 5794 5794 5794 5794 5793 5792 5791 5789 5788 5786 5784 5782 5780 5778 5776 5773 5771 5768 5765 5762 5759 5755 5751 5748 5745 5742 5739 5736 5733 5730 5727 5724 5722 5719 5717 5714 5712 5711 5709 5707 5705
5784 5784 5783 5784 5783 5783 5782 5781 5780 5779 5778 5776 5774 5772 5770 5768 5765 5763 5761 5758 5756 5753 5749 5746 5742 5739 5736 5733 5730 5727 5724 5721 5718 5716 5713 5710 5708 5706 5704 5702 5700 5698 5696
5773 5773 5773 5773 5772 5772 5771 5770 5769 5768 5767 5765 5763 5761 5759 5757 5755 5753 5750 5748 5746 5743 5739 5736 5733 5730 5727 5724 5721 5718 5715 5713 5710 5707 5705 5702 5700 5698 5696 5694 5692 5690 5688
5762 5762 5762 5762 5761 5760 5760 5759 5758 5757 5756 5754 5752 5751 5749 5747 5744 5742 5740 5738 5736 5733 5730 5727 5724 5721 5718 5715 5713 5710 5707 5704 5702 5699 5696 5694 5692 5689 5687 5685 5683 5681 5680
5750 5750 5750 5750 5749 5749 5748 5748 5747 5746 5744 5743 5741 5740 5738 5736 5734 5732 5730 5727 5725 5723 5720 5717 5714 5712 5709 5707 5704 5701 5699 5696 5693 5691 5688 5686 5683 5681 5679 5677 5675 5673 5672
5738 5738 5738 5738 5738 5737 5737 5736 5735 5734 5733 5732 5730 5729 5727 5725 5723 5721 5719 5717 5714 5712 5710 5707 5705 5703 5700 5698 5695 5693 5690 5688 5685 5683 5680 5677 5675 5673 5671 5669 5667 5665 5664
5726 5726 5726 5726 5726 5725 5725 5724 5723 5722 5721 5720 5719 5718 5716 5714 5712 5710 5708 5706 5704 5702 5700 5698 5696 5694 5692 5689 5687 5685 5682 5680 5677 5675 5672 5669 5667 5665 5663 5661 5659 5657 5656
5714 5714 5714 5714 5713 5713 5713 5712 5711 5710 5710 5709 5707 5706 5705 5703 5701 5700 5698 5696 5694 5692 5691 5689 5687 5685 5683 5681 5679 5676 5674 5671 5669 5666 5664 5661 5659 5657 5655 5653 5651 5649 5647
5702 5702 5702 5702 5701 5701 5700 5700 5699 5699 5698 5697 5696 5695 5693 5692 5690 5689 5687 5686 5684 5683 5681 5680 5678 5676 5674 5672 5670 5668 5666 5663 5661 5658 5655 5653 5651 5649 5646 5644 5642 5640 5639
5690 5690 5690 5690 5689 5689 5689 5688 5688 5687 5686 5685 5684 5683 5682 5681 5680 5678 5677 5676 5675 5674 5673 5671 5669 5668 5666 5664 5662 5660 5657 5655 5652 5650 5647 5645 5642 5640 5638 5635 5633 5631 5629
5679 5679 5679 5679 5678 5678 5677 5677 5676 5676 5675 5674 5673 5672 5671 5670 5670 5669 5668 5667 5666 5665 5664 5662 5661 5659 5657 5655 5653 5651 5649 5646 5644 5641 5639 5636 5633 5631 5628 5626 5624 5621 5619
5669 5668 5668 5668 5667 5667 5666 5666 5665 5665 5664 5663 5663 5662 5661 5661 5660 5659 5659 5658 5657 5656 5655 5654 5652 5650 5648 5646 5644 5642 5640 5637 5634 5632 5629 5627 5624 5621 5618 5615 5613 5611 5609
5658 5658 5657 5657 5656 5656 5655 5655 5654 5654 5654 5653 5653 5652 5652 5651 5651 5650 5650 5649 5648 5647 5646 5645 5643 5641 5639 5637 5635 5633 5630 5627 5625 5622 5619 5617 5614 5611 5608 5605 5602 5600 5597
5648 5647 5647 5646 5646 5645 5645 5645 5644 5644 5644 5643 5643 5643 5642 5642 5642 5641 5641 5640 5639 5638 5637 5635 5633 5632 5630 5627 5625 5623 5620 5618 5615 5612 5609 5606 5603 5600 5597 5594 5591 5588 5585
5637 5637 5636 5636 5636 5635 5635 5635 5635 5634 5634 5634 5634 5633 5633 5633 5633 5632 5632 5631 5630 5629 5628 5626 5624 5622 5620 5617 5615 5612 5610 5607 5604 5601 5598 5595 5592 5589 5585 5582 5579 5576 5573